WS Maaseik 1 Meer informatie WS Maaseik 1


WS Maaseik 2 Meer informatie WS Maaseik 2


Regen radar Meer informatie rain snow radar


Bezoek onze andere website:

Vorige versie
weerstation Maaseik


Bezoek ook eens deze sites:

Weerstation Geleen



Het weer levert geen direct gevaar op.    Er zijn geen waarschuwingen afgegeven.

15 daagse weersverwachting Helsingør (DK)

  • Overzicht
  • Per uur
  • 15 dagen
  • Extra
  • Vergelijk
  • Kaarten
  • Dagkaart
  • Meer »
  • Info
  • Statistieken
  • Directe link
    Temp 6h Neerslag Wind  
 06:57     19:07    Daglengte: 12:10 Vandaag
08:00
13°
 
3
14:00
17°
 
4
20:00
16°
 
4
 06:59     19:05    Daglengte: 12:06 Morgen
02:00
14°
 
5
08:00
14°
0.6 mm
7
14:00
15°
14.3 mm
9
20:00
13°
11.3 mm
13
 07:01     19:02    Daglengte: 12:01 Vrijdag 24 Sep
02:00
13°
23.6 mm
12
08:00
13°
 
9
14:00
14°
 
8
20:00
14°
 
6
 07:03     18:59    Daglengte: 11:56 Zaterdag 25 Sep
02:00
15°
 
6
Locatie info
Region: Hovedstaden
Latitude: 56.0334°N
Longitude: 12.6135°E
8 masl
Postcode: 3000
Temp/Neerslag /Baro Onweer/Dauwpunt
    Temp Baro 1h Neerslag Dauwpunt Wind UV Bewolking  
 06:57     19:07    Daglengte: 12:10 Vandaag
05:00
13°
1023.4 hPa
30%
12.1°
3
Windvlaag: 0.4 m/s
64%
06:00
13°
1023.4 hPa
18%
12.1°
3
Windvlaag: 0.4 m/s
86%
07:00
13°
1023.4 hPa
12%
11.9°
3
Windvlaag: 0.2 m/s
83%
08:00
13°
1023.6 hPa
12%
12.1°
3
Windvlaag: 1 m/s
84%
09:00
14°
1023.8 hPa
56%
12.3°
3
Windvlaag: 1 m/s
53%
10:00
14°
1024.0 hPa
61%
12.3°
3
Windvlaag: 0.9 m/s
49%
11:00
15°
1024.0 hPa
57%
11.5°
3
Windvlaag: 0.9 m/s
24%
12:00
15°
1023.7 hPa
17%
10.7°
4
Windvlaag: 1.3 m/s
10%
13:00
16°
1023.2 hPa
13%
10.2°
4
Windvlaag: 1.7 m/s
9%
14:00
17°
1022.6 hPa
12%
9.6°
4
Windvlaag: 3.9 m/s
25%
15:00
17°
1021.8 hPa
12%
8.9°
5
Windvlaag: 4.3 m/s
15%
16:00
17°
1020.9 hPa
12%
9.2°
5
Windvlaag: 4.9 m/s
10%
17:00
17°
1020.0 hPa
12%
9.7°
5
Windvlaag: 5.2 m/s
15%
18:00
17°
1019.3 hPa
12%
10.4°
4
Windvlaag: 5.4 m/s
11%
19:00
16°
1019.0 hPa
12%
11.4°
3
Windvlaag: 5.4 m/s
10%
20:00
16°
1018.4 hPa
12%
12.1°
4
Windvlaag: 5.7 m/s
13%
21:00
15°
1018.0 hPa
12%
11.7°
4
Windvlaag: 5.7 m/s
29%
22:00
15°
1017.3 hPa
12%
12.0°
5
Windvlaag: 5.3 m/s
39%
23:00
15°
1017.0 hPa
13%
11.7°
6
Windvlaag: 5.3 m/s
86%
 06:59     19:05    Daglengte: 12:06 Morgen
00:00
15°
1016.4 hPa
19%
11.3°
5
Windvlaag: 5.1 m/s
30%
01:00
15°
1015.7 hPa
68%
11.3°
5
Windvlaag: 4.9 m/s
67%
02:00
14°
1014.8 hPa
69%
11.3°
5
Windvlaag: 4.9 m/s
63%
03:00
14°
1013.9 hPa
33%
11.1°
6
Windvlaag: 5.4 m/s
50%
04:00
14°
1013.0 hPa
22%
10.9°
6
Windvlaag: 5.1 m/s
77%
05:00
14°
1012.0 hPa
22%
11.2°
6
Windvlaag: 5.7 m/s
86%
06:00
14°
1010.8 hPa
14%
11.3°
6
Windvlaag: 5.5 m/s
86%
07:00
14°
1009.6 hPa
18%
11.5°
7
Windvlaag: 6.4 m/s
86%
08:00
14°
1008.7 hPa 0.6 mm
82%
12.1°
7
Windvlaag: 7.8 m/s
86%
09:00
15°
1007.5 hPa 0.7 mm
82%
12.4°
8
Windvlaag: 8.1 m/s
86%
10:00
15°
1006.1 hPa 1.2 mm
82%
12.4°
8
Windvlaag: 8.7 m/s
86%
11:00
15°
1004.8 hPa 1.8 mm
82%
12.7°
9
Windvlaag: 9.1 m/s
86%
12:00
15°
1003.3 hPa 2.6 mm
82%
12.8°
9
Windvlaag: 9.8 m/s
86%
13:00
15°
1002.5 hPa 4.7 mm
82%
13.0°
10
Windvlaag: 2.9 m/s
86%
14:00
15°
1001.6 hPa 3.2 mm
82%
12.9°
9
Windvlaag: 3.5 m/s
86%
15:00
15°
1000.7 hPa
82%
12.5°
10
Windvlaag: 1.5 m/s
43%
16:00
14°
999.7 hPa
80%
11.3°
10
Windvlaag: 4.8 m/s
21%
17:00
14°
998.8 hPa 3.8 mm
82%
11.1°
10
Windvlaag: 4.3 m/s
23%
18:00
14°
998.8 hPa 3.8 mm
82%
9.3°
12
Windvlaag: -0.6 m/s
21%
19:00
13°
998.5 hPa
30%
5.9°
12
Windvlaag: 1.2 m/s
55%
20:00
13°
998.8 hPa 3.7 mm
79%
6.2°
13
Windvlaag: -1.1 m/s
61%
21:00
13°
999.6 hPa
82%
7.3°
13
Windvlaag: -1.6 m/s
73%
22:00
14°
1000.3 hPa
76%
7.9°
13
Windvlaag: -2.9 m/s
78%
23:00
14°
998.7 hPa 5.9 mm
87%
11.3°
12
Windvlaag: -3.6 m/s
75%
 07:01     19:02    Daglengte: 12:01 Vrijdag 24 Sep
00:00
14°
999.6 hPa 5.9 mm
87%
10.3°
12
Windvlaag: -3.3 m/s
64%
01:00
14°
1000.4 hPa 5.9 mm
90%
9.5°
12
Windvlaag: -3 m/s
61%
02:00
13°
1001.1 hPa 5.9 mm
84%
9.5°
12
Windvlaag: -3.6 m/s
43%
03:00
13°
1002.0 hPa
72%
8.9°
11
Windvlaag: -4 m/s
58%
04:00
13°
1002.7 hPa
23%
8.4°
11
Windvlaag: -4.2 m/s
48%
05:00
13°
1003.4 hPa
25%
8.3°
10
Windvlaag: -4.1 m/s
28%
06:00
13°
1004.0 hPa
25%
8.5°
9
Windvlaag: -3.3 m/s
13%
07:00
13°
1004.6 hPa
21%
8.4°
9
Windvlaag: -2.4 m/s
40%
08:00
13°
1005.2 hPa
22%
8.3°
9
Windvlaag: -1.7 m/s
49%
09:00
13°
1005.3 hPa
67%
8.3°
9
Windvlaag: 12.3 m/s
16%
10:00
13°
1005.9 hPa
23%
9.3°
9
Windvlaag: 11.6 m/s
19%
11:00
14°
1006.3 hPa
22%
8.5°
9
Windvlaag: 11.2 m/s
22%
12:00
14°
1006.6 hPa
34%
8.6°
9
Windvlaag: 11.2 m/s
28%
13:00
14°
1007.0 hPa
85%
9.0°
9
Windvlaag: 11.4 m/s
62%
14:00
14°
1007.1 hPa
23%
9.3°
8
Windvlaag: 10.9 m/s
64%
15:00
15°
1006.9 hPa
22%
9.2°
8
Windvlaag: 12.8 m/s
97%
16:00
14°
1006.6 hPa
21%
8.5°
6
Windvlaag: 14.2 m/s
100%
17:00
14°
1006.5 hPa
29%
8.8°
5
Windvlaag: 14.4 m/s
100%
18:00
14°
1006.1 hPa
21%
10.2°
5
Windvlaag: 14.7 m/s
82%
19:00
14°
1005.8 hPa
23%
11.2°
6
Windvlaag: 15.5 m/s
75%
20:00
14°
1005.8 hPa
34%
11.9°
6
Windvlaag: 16.6 m/s
74%
21:00
14°
1005.8 hPa
33%
12.5°
6
Windvlaag: 16.5 m/s
20%
22:00
15°
1005.8 hPa
45%
13.3°
6
Windvlaag: 15.9 m/s
95%
23:00
15°
1005.6 hPa
95%
13.6°
6
Windvlaag: 15.3 m/s
81%
 07:03     18:59    Daglengte: 11:56 Zaterdag 25 Sep
00:00
15°
1005.5 hPa
32%
13.6°
6
Windvlaag: 14 m/s
72%
01:00
15°
1005.4 hPa
21%
13.5°
6
Windvlaag: 13.9 m/s
94%
02:00
15°
1005.5 hPa
33%
13.6°
6
Windvlaag: 13.5 m/s
90%
03:00
15°
1004.9 hPa 18.0 mm
100%
13.1°
9
Windvlaag: 14.4 m/s
96%
04:00
14°
1005.4 hPa 18.0 mm
100%
11.9°
9
Windvlaag: 14.5 m/s
57%
Temp/Neerslag /Baro Onweer/Dauwpunt
    Temp Baro Neerslag Dauwpunt Wind Bewolking  
 06:57     19:07    Daglengte: 12:10 Vandaag
05:00
13°
1023.4 hPa   12.1°
3
64%
08:00
13°
1023.6 hPa   12.1°
3
84%
11:00
15°
1024.0 hPa   11.5°
3
24%
14:00
17°
1022.6 hPa   9.6°
4
25%
17:00
17°
1020.0 hPa   9.7°
5
15%
20:00
16°
1018.4 hPa   12.1°
4
13%
23:00
15°
1017.0 hPa   11.7°
6
86%
 06:59     19:05    Daglengte: 12:06 Morgen
02:00
14°
1014.8 hPa   11.3°
5
63%
05:00
14°
1012.0 hPa   11.2°
6
86%
08:00
14°
1008.7 hPa 0.6 mm 12.1°
7
86%
11:00
15°
1004.8 hPa 3.8 mm 12.7°
9
86%
14:00
15°
1001.6 hPa 10.5 mm 12.9°
9
86%
17:00
14°
998.8 hPa 3.8 mm 11.1°
10
23%
20:00
13°
998.8 hPa 7.5 mm 6.2°
13
61%
23:00
14°
998.7 hPa 5.9 mm 11.3°
12
75%
 07:01     19:02    Daglengte: 12:01 Vrijdag 24 Sep
02:00
13°
1001.1 hPa 17.7 mm 9.5°
12
43%
05:00
13°
1003.4 hPa   8.3°
10
28%
08:00
13°
1005.2 hPa   8.3°
9
49%
11:00
14°
1006.3 hPa   8.5°
9
22%
14:00
14°
1007.1 hPa   9.3°
8
64%
17:00
14°
1006.5 hPa   8.8°
5
100%
20:00
14°
1005.8 hPa   11.9°
6
74%
23:00
15°
1005.6 hPa   13.6°
6
81%
 07:03     18:59    Daglengte: 11:56 Zaterdag 25 Sep
02:00
15°
1005.5 hPa   13.6°
6
90%
05:00
14°
1005.8 hPa 54.1 mm 11.2°
9
42%
08:00
14°
1008.1 hPa 54.1 mm 10.9°
9
59%
11:00
14°
1010.8 hPa 16.6 mm 8.7°
9
0%
14:00
15°
1012.6 hPa 16.6 mm 8.5°
8
0%
17:00
15°
1014.2 hPa 16.6 mm 9.3°
6
1%
20:00
13°
1015.8 hPa 16.6 mm 10.8°
3
1%
23:00
13°
1017.3 hPa 16.6 mm 10.3°
3
1%
 07:05     18:57    Daglengte: 11:52 Zondag 26 Sep
02:00
12°
1018.6 hPa 16.6 mm 10.0°
2
1%
05:00
12°
1019.0 hPa 16.6 mm 9.4°
1
0%
08:00
12°
1019.7 hPa 16.6 mm 9.6°
2
0%
11:00
15°
1020.5 hPa 16.6 mm 10.0°
4
1%
14:00
17°
1020.1 hPa 16.6 mm 11.1°
4
1%
17:00
17°
1019.3 hPa 16.6 mm 11.5°
5
0%
20:00
15°
1019.6 hPa 16.6 mm 11.9°
5
0%
23:00
14°
1019.8 hPa 16.6 mm 11.8°
6
1%
 07:07     18:54    Daglengte: 11:47 Maandag 27 Sep
02:00
14°
1019.2 hPa 16.6 mm 11.8°
6
1%
05:00
14°
1018.1 hPa 16.6 mm 12.6°
6
0%
08:00
15°
1017.9 hPa 16.6 mm 12.7°
7
1%
11:00
17°
1017.8 hPa 16.6 mm 13.5°
8
1%
14:00
19°
1017.5 hPa 16.6 mm 13.4°
9
1%
17:00
18°
1017.3 hPa 16.6 mm 13.0°
8
1%
20:00
15°
1017.4 hPa 16.6 mm 12.4°
7
1%
23:00
15°
1017.4 hPa 16.7 mm 12.7°
5
1%
 07:09     18:51    Daglengte: 11:42 Dinsdag 28 Sep
02:00
15°
1017.9 hPa 20.5 mm 14.7°
1
1%
05:00
15°
1018.5 hPa 28.5 mm 14.0°
5
1%
08:00
14°
1019.3 hPa 31.0 mm 13.2°
6
1%
11:00
13°
1021.4 hPa 31.5 mm 11.4°
6
1%
14:00
15°
1022.3 hPa 31.6 mm 9.7°
6
1%
17:00
14°
1023.0 hPa 31.6 mm 9.0°
5
1%
20:00
12°
1024.0 hPa 31.6 mm 9.1°
3
1%
23:00
12°
1024.4 hPa 31.6 mm 9.2°
3
1%
 07:11     18:49    Daglengte: 11:38 Woensdag 29 Sep
02:00
12°
1024.4 hPa 63.2 mm 9.3°
2
1%
08:00
11°
1023.6 hPa 63.2 mm 8.4°
2
1%
14:00
14°
1022.1 hPa 63.2 mm 6.2°
3
1%
20:00
14°
1020.2 hPa 63.4 mm 9.1°
6
1%
 07:13     18:46    Daglengte: 11:33 Donderdag 30 Sep
02:00
14°
1017.9 hPa 63.5 mm 11.8°
7
1%
08:00
14°
1015.4 hPa 63.9 mm 12.7°
8
1%
14:00
16°
1015.1 hPa 66.0 mm 13.4°
6
1%
20:00
14°
1014.1 hPa 67.2 mm 11.7°
7
1%
 07:15     18:44    Daglengte: 11:29 Vrijdag 01 Okt
02:00
14°
1012.6 hPa 84.2 mm 13.0°
6
1%
08:00
10°
1015.4 hPa 105.4 mm 8.6°
7
1%
14:00
10°
1019.3 hPa 114.2 mm 7.0°
3
1%
20:00
11°
1021.1 hPa 115.2 mm 6.9°
1
1%
 07:17     18:41    Daglengte: 11:24 Zaterdag 02 Okt
02:00
11°
1020.9 hPa 0.3 mm 7.4°
3
65%
08:00
10°
1020.9 hPa 0.6 mm 7.5°
3
70%
14:00
13°
1021.1 hPa 0.8 mm 7.8°
2
70%
20:00
11°
1020.9 hPa 0.6 mm 7.4°
2
76%
 07:19     18:38    Daglengte: 11:19 Zondag 03 Okt
02:00
10°
1020.2 hPa 0.6 mm 7.7°
2
72%
08:00
10°
1019.4 hPa 0.7 mm 7.6°
1
61%
14:00
14°
1019.5 hPa 0.6 mm 8.2°
2
61%
20:00
11°
1019.2 hPa 0.4 mm 7.4°
2
58%
 07:21     18:36    Daglengte: 11:15 Maandag 04 Okt
02:00
10°
1018.9 hPa 0.2 mm 7.5°
1
58%
08:00
10°
Voelt als: 9.5°
1018.3 hPa 0.3 mm 7.7°
2
60%
14:00
13°
1018.2 hPa 0.6 mm 7.8°
1
68%
20:00
11°
1018.3 hPa 1.2 mm 7.6°
1
66%
 07:23     18:33    Daglengte: 11:10 Dinsdag 05 Okt
02:00
10°
1018.3 hPa 0.6 mm 7.5°
1
62%
08:00
10°
Voelt als: 9.7°
1018.5 hPa 0.7 mm 7.3°
1
59%
14:00
13°
1018.7 hPa   7.8°
2
63%
20:00
11°
1018.9 hPa 1.2 mm 8.0°
1
66%
 07:25     18:31    Daglengte: 11:06 Woensdag 06 Okt
02:00
11°
1018.9 hPa 1.2 mm 7.6°
2
68%
08:00
10°
1018.2 hPa 1.3 mm 7.8°
2
74%
14:00
13°
1018.0 hPa 0.9 mm 8.3°
3
68%
20:00
11°
1017.8 hPa 0.4 mm 8.1°
3
63%
 07:27     18:28    Daglengte: 11:01 Donderdag 07 Okt
02:00
10°
1017.7 hPa 0.4 mm 7.7°
2
59%
  CAPE Lifted Index Hail Supercell Tornado SRH 3km CL BTM PRES CL TOP PRES Swiss DWD icon SMHI TS
 06:57     19:07    Daglengte: 12:10 Vandaag
05:00 14 J/kg 10.4 K 0 % 0 % 0 % 0 m²/s² 0 0 10.97 3
06:00 7 J/kg 10.5 K 0 % 0 % 0 % 0 m²/s² 0 0 10.98 3
07:00 0 J/kg 10.3 K 0 % 0 % 0 % 0 m²/s² 0 0 12.22 3
08:00 0 J/kg 10.3 K 0 % 0 % 0 % 0 m²/s² 0 0 13.48 3
09:00 4 J/kg 9.9 K 0 % 0 % 0 % 0 m²/s² 0 0 13.35 3
10:00 4 J/kg 9.9 K 0 % 0 % 0 % 0 m²/s² 0 0 13.62 3
11:00 0 J/kg 10.3 K 0 % 0 % 0 % 0 m²/s² 0 0 14.35 3
12:00 0 J/kg 10.3 K 0 % 0 % 0 % 0 m²/s² 0 0 14.56 3
13:00 0 J/kg 9.5 K 0 % 0 % 0 % 0 m²/s² 0 0 13.55 2
14:00 0 J/kg 9.8 K 0 % 0 % 0 % 0 m²/s² 0 0 13.97 2
15:00 0 J/kg 10.1 K 0 % 0 % 0 % 0 m²/s² 0 0 13.88 3
16:00 0 J/kg 8.7 K 0 % 0 % 0 % 0 m²/s² 0 0 12 3
17:00 0 J/kg 7.8 K 0 % 0 % 0 % 0 m²/s² 0 0 11.28 3
18:00 0 J/kg 7.6 K 0 % 0 % 0 % 0 m²/s² 0 0 11.08 2
19:00 0 J/kg 7.6 K 0 % 0 % 0 % 0 m²/s² 0 0 11.77 2
20:00 0 J/kg 7.6 K 0 % 0 % 0 % 0 m²/s² 0 0 12.1 2
21:00 0 J/kg 7.1 K 0 % 0 % 0 % 0 m²/s² 0 0 11.72 2
22:00 0 J/kg 6.5 K 0 % 0 % 0 % 0 m²/s² 0 0 11 2
23:00 4 J/kg 6.3 K 0 % 0 % 0 % 0 m²/s² 0 0 11.04 3
 06:59     19:05    Daglengte: 12:06 Morgen
00:00 7 J/kg 7.0 K 0 % 0 % 0 % 0 m²/s² 0 0 12.52 2
01:00 9 J/kg 7.8 K 0 % 0 % 0 % 0 m²/s² 0 0 13.98 3
02:00 6 J/kg 8.2 K 0 % 0 % 0 % 0 m²/s² 0 0 13.3 3
03:00 5 J/kg 7.8 K 0 % 0 % 0 % 0 m²/s² 0 0 11.64 2
04:00 2 J/kg 6.0 K 0 % 0 % 0 % 0 m²/s² 0 0 8.25 3
05:00 1 J/kg 5.8 K 0 % 0 % 0 % 0 m²/s² 0 0 6.49 3
06:00 1 J/kg 5.5 K 0 % 0 % 0 % 0 m²/s² 0 0 5.53 3
07:00 1 J/kg 5.7 K 0 % 0 % 0 % 0 m²/s² 0 0 5.79 3
08:00 0 J/kg 5.7 K 0 % 0 % 0 % 0 m²/s² 0 0 5.82 61
09:00 0 J/kg 5.4 K 0 % 0 % 0 % 0 m²/s² 0 0 5.49 61
10:00 0 J/kg 5.0 K 0 % 0 % 0 % 0 m²/s² 0 0 5.03 61
11:00 0 J/kg 6.4 K 0 % 0 % 0 % 0 m²/s² 0 0 6.43 61
12:00 1 J/kg 6.6 K 0 % 0 % 0 % 0 m²/s² 0 0 6.6 61
13:00 38 J/kg 7.1 K 0 % 0 % 0 % 0 m²/s² 0 0 7.13 63
14:00 59 J/kg 7.1 K 0 % 0 % 0 % 0 m²/s² 0 0 7.13 63
15:00 100 J/kg 6.6 K 0 % 0 % 0 % 0 m²/s² 0 0 6.69 61
16:00 85 J/kg 6.2 K 0 % 0 % 0 % 0 m²/s² 0 0 6.32 3
17:00 113 J/kg 4.8 K 0 % 0 % 0 % 0 m²/s² 0 0 5.31 80
18:00 287 J/kg 3.2 K 0 % 0 % 0 % 0 m²/s² 0 0 4.91 80
19:00 353 J/kg 3.9 K 0 % 0 % 0 % 0 m²/s² 0 0 6.72 3
20:00 114 J/kg 7.0 K 0 % 0 % 0 % 0 m²/s² 0 0 11.8 80
21:00 57 J/kg 4.3 K 0 % 0 % 0 % 0 m²/s² 0 0 7.24 80
22:00 109 J/kg 2.7 K 0 % 0 % 0 % 0 m²/s² 0 0 5.97 3
23:00 194 J/kg 4.6 K 0 % 0 % 0 % 0 m²/s² 0 0 10.09 2
 07:01     19:02    Daglengte: 12:01 Vrijdag 24 Sep
00:00 109 J/kg 7.5 K 0 % 0 % 0 % 0 m²/s² 0 0 12.72 2
01:00 49 J/kg 8.7 K 0 % 0 % 0 % 0 m²/s² 0 0 14.94 2
02:00 28 J/kg 9.4 K 0 % 0 % 0 % 0 m²/s² 0 0 16.51 80
03:00 8 J/kg 10.9 K 0 % 0 % 0 % 0 m²/s² 0 0 17.59 2
04:00 2 J/kg 12.5 K 0 % 0 % 0 % 0 m²/s² 0 0 18.8 2
05:00 2 J/kg 13.8 K 0 % 0 % 0 % 0 m²/s² 0 0 18.87 2
06:00 2 J/kg 15.1 K 0 % 0 % 0 % 0 m²/s² 0 0 18.49 2
07:00 5 J/kg 15.6 K 0 % 0 % 0 % 0 m²/s² 0 0 18.24 1
08:00 10 J/kg 15.2 K 0 % 0 % 0 % 0 m²/s² 0 0 16.94 2
09:00 22 J/kg 15.3 K 0 % 0 % 0 % 0 m²/s² 0 0 16.32 2
10:00 34 J/kg 14.6 K 0 % 0 % 0 % 0 m²/s² 0 0 15.38 2
11:00 23 J/kg 15.1 K 0 % 0 % 0 % 0 m²/s² 0 0 15.67 3
12:00 21 J/kg 14.8 K 0 % 0 % 0 % 0 m²/s² 0 0 15.22 3
13:00 17 J/kg 14.7 K 0 % 0 % 0 % 0 m²/s² 0 0 15.93 3
14:00 12 J/kg 13.1 K 0 % 0 % 0 % 0 m²/s² 0 0 15.11 3
15:00 2 J/kg 10.7 K 0 % 0 % 0 % 0 m²/s² 0 0 12.92 3
16:00 0 J/kg 10.3 K 0 % 0 % 0 % 0 m²/s² 0 0 12.52 3
17:00 0 J/kg 10.0 K 0 % 0 % 0 % 0 m²/s² 0 0 12.1 3
18:00 0 J/kg 7.6 K 0 % 0 % 0 % 0 m²/s² 0 0 9.91 3
19:00 0 J/kg 6.2 K 0 % 0 % 0 % 0 m²/s² 0 0 8.81 3
20:00 0 J/kg 6.3 K 0 % 0 % 0 % 0 m²/s² 0 0 9.3 3
21:00 2 J/kg 6.8 K 0 % 0 % 0 % 0 m²/s² 0 0 9.05 2
22:00 3 J/kg 7.5 K 0 % 0 % 0 % 0 m²/s² 0 0 9.15 3
23:00 14 J/kg 7.7 K 0 % 0 % 0 % 0 m²/s² 0 0 9.32 3
 07:03     18:59    Daglengte: 11:56 Zaterdag 25 Sep
00:00 26 J/kg 7.5 K 0 % 0 % 0 % 0 m²/s² 0 0 9.24 3
01:00 41 J/kg 7.5 K 0 % 0 % 0 % 0 m²/s² 0 0 9.36 3
02:00 52 J/kg 7.8 K 0 % 0 % 0 % 0 m²/s² 0 0 9.6 3
03:00 52 J/kg 8.2 K 0 % 0 % 0 % 0 m²/s² 0 0 10.18
04:00 22 J/kg 9.5 K 0 % 0 % 0 % 0 m²/s² 0 0 11.6
Temp Baro Wind Neerslag
  EWN Forecast EWN WRFDA DWD ICON FMI HIRLAM MET Norway GFS
 06:57     19:07    Daglengte: 12:10 Vandaag
05:00 13.1° 1023.4 hPa 3.4 m/s 0.0 mm 12.9° 1021.7 hPa 4.3 m/s 0.0 mm 13.9° 1023.4 hPa 3.3 m/s -2.0 mm 13.0° 1023.7 hPa 2.8 m/s 0.0 mm 12.5° 1022.6 hPa 4.1 m/s
08:00 13.1° 1023.6 hPa 2.9 m/s 0.0 mm 13.4° 1022.0 hPa 3.5 m/s 0.0 mm 14.1° 1023.8 hPa 2.4 m/s 0.0 mm 12.9° 1024.0 hPa 2.9 m/s 0.0 mm 12.7° 1023.0 hPa 3.0 m/s
11:00 14.9° 1024.0 hPa 3.4 m/s 0.0 mm 15.1° 1022.1 hPa 4.1 m/s 0.0 mm 15.1° 1024.5 hPa 3.3 m/s 0.1 mm 14.9° 1024.2 hPa 3.4 m/s 0.0 mm 15.5° 1022.8 hPa 4.1 m/s
14:00 16.6° 1022.6 hPa 4.0 m/s 0.0 mm 17.0° 1020.5 hPa 4.5 m/s 0.0 mm 16.5° 1022.4 hPa 3.8 m/s 0.0 mm 17.3° 1023.4 hPa 3.5 m/s 0.0 mm 17.4° 1021.2 hPa 5.7 m/s
17:00 17.1° 1020.0 hPa 4.7 m/s 0.0 mm 17.8° 1018.3 hPa 5.3 m/s 0.0 mm 16.7° 1020.2 hPa 4.4 m/s 0.0 mm 18.6° 1020.5 hPa 4.6 m/s 0.0 mm 17.5° 1018.8 hPa 6.2 m/s
20:00 15.9° 1018.4 hPa 3.8 m/s 0.0 mm 15.7° 1017.1 hPa 5.6 m/s 0.0 mm 15.5° 1018.4 hPa 3.5 m/s 0.0 mm 16.3° 1019.3 hPa 2.9 m/s 0.0 mm 14.7° 1017.3 hPa 6.6 m/s
23:00 15.0° 1017.0 hPa 5.6 m/s 0.0 mm 13.9° 1016.1 hPa 6.9 m/s 0.0 mm 14.8° 1017.0 hPa 3.7 m/s 0.0 mm 16.7° 1018.0 hPa 5.9 m/s 0.0 mm 13.4° 1015.8 hPa 7.3 m/s
 06:59     19:05    Daglengte: 12:06 Morgen
02:00 14.5° 1014.8 hPa 5.3 m/s 0.0 mm 13.1° 1013.6 hPa 7.5 m/s 0.1 mm 14.2° 1014.7 hPa 3.7 m/s 0.0 mm 15.9° 1016.5 hPa 6.6 m/s 0.0 mm 13.7° 1013.8 hPa 8.4 m/s
05:00 14.3° 1012.0 hPa 5.7 m/s 0.0 mm 13.4° 1011.3 hPa 7.6 m/s 0.2 mm 14.2° 1011.9 hPa 4.2 m/s 0.0 mm 15.5° 1013.8 hPa 5.6 m/s 0.0 mm 13.6° 1010.6 hPa 7.7 m/s
08:00 14.3° 1008.7 hPa 6.6 m/s 0.6 mm 13.2° 1007.6 hPa 8.7 m/s 3.6 mm 14.2° 1008.5 hPa 4.5 m/s 0.3 mm 14.9° 1010.7 hPa 6.3 m/s 0.0 mm 13.0° 1007.4 hPa 8.3 m/s
11:00 14.7° 1004.8 hPa 8.6 m/s 3.8 mm 13.6° 1004.3 hPa 9.2 m/s 9.8 mm 14.5° 1003.8 hPa 6.2 m/s 2.3 mm 14.8° 1007.3 hPa 8.5 m/s 0.0 mm 14.2° 1003.5 hPa 10.3 m/s
14:00 14.7° 1001.6 hPa 9.3 m/s 10.5 mm 14.4° 1000.4 hPa 11.1 m/s 22.8 mm 14.6° 999.5 hPa 9.1 m/s 9.6 mm 15.5° 1003.4 hPa 9.7 m/s 0.0 mm 13.8° 999.4 hPa 11.0 m/s
17:00 14.5° 998.8 hPa 10.0 m/s 3.8 mm 13.2° 996.7 hPa 12.2 m/s 41.7 mm 14.0° 996.3 hPa 8.1 m/s 1.3 mm 14.8° 1002.9 hPa 9.5 m/s 0.0 mm 12.8° 995.9 hPa 12.0 m/s
20:00 13.3° 998.8 hPa 12.7 m/s 7.5 mm 12.4° 995.9 hPa 14.3 m/s 51.2 mm 12.3° 995.8 hPa 11.8 m/s 1.4 mm 13.5° 1004.1 hPa 12.0 m/s 0.0 mm 11.6° 995.6 hPa 11.7 m/s
23:00 13.8° 998.7 hPa 11.9 m/s 5.9 mm 13.3° 998.0 hPa 11.9 m/s 51.7 mm 13.8° 998.2 hPa 10.6 m/s 0.6 mm 12.2° 997.7 hPa 10.2 m/s
 07:01     19:02    Daglengte: 12:01 Vrijdag 24 Sep
02:00 13.4° 1001.1 hPa 11.9 m/s 17.7 mm 13.3° 1000.8 hPa 13.0 m/s 52.2 mm 13.0° 1000.5 hPa 10.4 m/s 0.4 mm 12.3° 1000.4 hPa 10.3 m/s
05:00 13.0° 1003.4 hPa 10.1 m/s 0.0 mm 12.2° 1003.5 hPa 10.7 m/s 52.2 mm 13.0° 1002.4 hPa 9.1 m/s 0.1 mm 11.6° 1002.1 hPa 9.4 m/s
08:00 12.8° 1005.2 hPa 8.9 m/s 0.0 mm 11.9° 1005.2 hPa 9.2 m/s 52.2 mm 12.9° 1004.3 hPa 8.4 m/s 0.0 mm 11.2° 1004.6 hPa 9.8 m/s
11:00 13.6° 1006.3 hPa 9.3 m/s 0.0 mm 12.8° 1007.1 hPa 9.4 m/s 52.2 mm 13.8° 1006.1 hPa 9.3 m/s 0.0 mm 12.2° 1006.0 hPa 9.9 m/s
14:00 14.2° 1007.1 hPa 7.9 m/s 0.0 mm 13.2° 1007.4 hPa 7.7 m/s 52.3 mm 14.5° 1007.0 hPa 7.9 m/s 0.0 mm 13.7° 1006.6 hPa 10.0 m/s
17:00 13.9° 1006.5 hPa 4.9 m/s 0.0 mm 13.6° 1005.4 hPa 8.0 m/s 52.4 mm 13.9° 1006.8 hPa 4.1 m/s 0.0 mm 13.7° 1005.8 hPa 9.4 m/s
20:00 14.1° 1005.8 hPa 5.8 m/s 0.0 mm 14.0° 1004.8 hPa 10.4 m/s 52.5 mm 14.1° 1006.1 hPa 4.6 m/s 0.0 mm 13.5° 1005.4 hPa 9.8 m/s
23:00 15.0° 1005.6 hPa 5.9 m/s 0.0 mm 14.4° 1004.1 hPa 9.9 m/s 53.0 mm 15.2° 1006.0 hPa 4.9 m/s 0.1 mm 13.7° 1005.2 hPa 9.5 m/s
 07:03     18:59    Daglengte: 11:56 Zaterdag 25 Sep
02:00 14.9° 1005.5 hPa 5.8 m/s 0.0 mm 14.6° 1004.5 hPa 8.3 m/s 53.7 mm 15.0° 1005.7 hPa 5.2 m/s 0.0 mm 14.3° 1005.5 hPa 9.2 m/s
05:00 13.8° 1005.8 hPa 8.9 m/s 54.1 mm 13.8° 1005.8 hPa 8.9 m/s 54.1 mm 13.9° 1006.5 hPa 9.2 m/s
08:00 13.5° 1008.1 hPa 8.5 m/s 54.1 mm 13.5° 1008.1 hPa 8.5 m/s 54.1 mm 13.2° 1008.7 hPa 8.7 m/s
11:00 14.2° 1010.8 hPa 9.0 m/s 16.6 mm 14.2° 1010.8 hPa 9.0 m/s 16.6 mm
14:00 15.2° 1012.6 hPa 7.6 m/s 16.6 mm 15.2° 1012.6 hPa 7.6 m/s 16.6 mm
17:00 15.4° 1014.2 hPa 5.6 m/s 16.6 mm 15.4° 1014.2 hPa 5.6 m/s 16.6 mm
20:00 13.3° 1015.8 hPa 3.4 m/s 16.6 mm 13.3° 1015.8 hPa 3.4 m/s 16.6 mm
23:00 12.7° 1017.3 hPa 2.8 m/s 16.6 mm 12.7° 1017.3 hPa 2.8 m/s 16.6 mm
 07:05     18:57    Daglengte: 11:52 Zondag 26 Sep
02:00 12.1° 1018.6 hPa 1.7 m/s 16.6 mm 12.1° 1018.6 hPa 1.7 m/s 16.6 mm
05:00 11.7° 1019.0 hPa 1.5 m/s 16.6 mm 11.7° 1019.0 hPa 1.5 m/s 16.6 mm
08:00 12.0° 1019.7 hPa 2.5 m/s 16.6 mm 12.0° 1019.7 hPa 2.5 m/s 16.6 mm
11:00 14.9° 1020.5 hPa 3.9 m/s 16.6 mm 14.9° 1020.5 hPa 3.9 m/s 16.6 mm
14:00 16.9° 1020.1 hPa 4.4 m/s 16.6 mm 16.9° 1020.1 hPa 4.4 m/s 16.6 mm
17:00 16.7° 1019.3 hPa 4.6 m/s 16.6 mm 16.7° 1019.3 hPa 4.6 m/s 16.6 mm
20:00 14.8° 1019.6 hPa 5.1 m/s 16.6 mm 14.8° 1019.6 hPa 5.1 m/s 16.6 mm
23:00 13.6° 1019.8 hPa 5.9 m/s 16.6 mm 13.6° 1019.8 hPa 5.9 m/s 16.6 mm
 07:07     18:54    Daglengte: 11:47 Maandag 27 Sep
02:00 13.6° 1019.2 hPa 5.6 m/s 16.6 mm 13.6° 1019.2 hPa 5.6 m/s 16.6 mm
05:00 13.9° 1018.1 hPa 6.4 m/s 16.6 mm 13.9° 1018.1 hPa 6.4 m/s 16.6 mm
08:00 14.5° 1017.9 hPa 7.0 m/s 16.6 mm 14.5° 1017.9 hPa 7.0 m/s 16.6 mm
11:00 17.3° 1017.8 hPa 8.4 m/s 16.6 mm 17.3° 1017.8 hPa 8.4 m/s 16.6 mm
14:00 18.5° 1017.5 hPa 8.6 m/s 16.6 mm 18.5° 1017.5 hPa 8.6 m/s 16.6 mm
17:00 17.7° 1017.3 hPa 7.8 m/s 16.6 mm 17.7° 1017.3 hPa 7.7 m/s 16.6 mm
20:00 15.1° 1017.4 hPa 7.4 m/s 16.6 mm 15.1° 1017.4 hPa 7.4 m/s 16.6 mm
23:00 15.3° 1017.4 hPa 5.5 m/s 16.7 mm 15.3° 1017.4 hPa 5.5 m/s 16.7 mm
 07:09     18:51    Daglengte: 11:42 Dinsdag 28 Sep
02:00 15.0° 1017.9 hPa 1.3 m/s 20.5 mm 15.0° 1017.9 hPa 1.3 m/s 20.5 mm
05:00 14.5° 1018.5 hPa 4.8 m/s 28.5 mm 14.5° 1018.5 hPa 4.8 m/s 28.5 mm
08:00 14.0° 1019.3 hPa 5.7 m/s 31.0 mm 14.0° 1019.3 hPa 5.7 m/s 31.0 mm
11:00 13.2° 1021.4 hPa 6.1 m/s 31.5 mm 13.2° 1021.4 hPa 6.1 m/s 31.5 mm
14:00 14.6° 1022.3 hPa 6.1 m/s 31.6 mm 14.6° 1022.3 hPa 6.1 m/s 31.6 mm
17:00 13.9° 1023.0 hPa 5.5 m/s 31.6 mm 13.9° 1023.0 hPa 5.5 m/s 31.6 mm
20:00 12.5° 1024.0 hPa 3.5 m/s 31.6 mm 12.5° 1024.0 hPa 3.5 m/s 31.6 mm
23:00 12.4° 1024.4 hPa 2.8 m/s 31.6 mm 12.4° 1024.4 hPa 2.8 m/s 31.6 mm
 07:11     18:49    Daglengte: 11:38 Woensdag 29 Sep
02:00 11.9° 1024.4 hPa 2.4 m/s 31.6 mm 11.9° 1024.4 hPa 2.4 m/s 31.6 mm
08:00 10.8° 1023.6 hPa 1.8 m/s 31.6 mm 10.8° 1023.6 hPa 1.8 m/s 31.6 mm
14:00 14.3° 1022.1 hPa 3.0 m/s 31.6 mm 14.3° 1022.1 hPa 3.0 m/s 31.6 mm
20:00 13.6° 1020.2 hPa 6.0 m/s 31.8 mm 13.6° 1020.2 hPa 6.0 m/s 31.8 mm
 07:13     18:46    Daglengte: 11:33 Donderdag 30 Sep
02:00 14.0° 1017.9 hPa 7.1 m/s 31.8 mm 14.0° 1017.9 hPa 7.1 m/s 31.8 mm
08:00 14.0° 1015.4 hPa 7.7 m/s 32.1 mm 14.0° 1015.4 hPa 7.7 m/s 32.1 mm
14:00 16.0° 1015.1 hPa 6.5 m/s 33.4 mm 16.0° 1015.1 hPa 6.5 m/s 33.4 mm
20:00 13.5° 1014.1 hPa 6.9 m/s 33.7 mm 13.5° 1014.1 hPa 6.9 m/s 33.7 mm
 07:15     18:44    Daglengte: 11:29 Vrijdag 01 Okt
02:00 13.7° 1012.6 hPa 6.2 m/s 44.4 mm 13.6° 1012.6 hPa 6.2 m/s 44.4 mm
08:00 10.2° 1015.4 hPa 7.1 m/s 54.3 mm 10.2° 1015.4 hPa 7.1 m/s 54.3 mm
14:00 10.5° 1019.3 hPa 2.5 m/s 57.4 mm 10.5° 1019.3 hPa 2.5 m/s 57.4 mm
20:00 11.1° 1021.1 hPa 1.5 m/s 57.7 mm 11.1° 1021.1 hPa 1.5 m/s 57.7 mm
 07:17     18:41    Daglengte: 11:24 Zaterdag 02 Okt
02:00 10.9° 1020.9 hPa 2.5 m/s 0.3 mm
08:00 10.2° 1020.9 hPa 2.5 m/s 0.6 mm
14:00 13.3° 1021.1 hPa 2.3 m/s 0.8 mm
20:00 11.3° 1020.9 hPa 1.9 m/s 0.6 mm
 07:19     18:38    Daglengte: 11:19 Zondag 03 Okt
02:00 10.4° 1020.2 hPa 2.0 m/s 0.6 mm
08:00 10.1° 1019.4 hPa 1.3 m/s 0.7 mm
14:00 13.7° 1019.5 hPa 1.5 m/s 0.6 mm
20:00 11.3° 1019.2 hPa 1.8 m/s 0.4 mm
 07:21     18:36    Daglengte: 11:15 Maandag 04 Okt
02:00 10.2° 1018.9 hPa 1.4 m/s 0.2 mm
08:00 10.0° 1018.3 hPa 1.5 m/s 0.3 mm
14:00 13.0° 1018.2 hPa 1.1 m/s 0.6 mm
20:00 11.1° 1018.3 hPa 0.7 m/s 1.2 mm
 07:23     18:33    Daglengte: 11:10 Dinsdag 05 Okt
02:00 10.2° 1018.3 hPa 1.2 m/s 0.6 mm
08:00 9.9° 1018.5 hPa 1.3 m/s 0.7 mm
14:00 13.0° 1018.7 hPa 2.2 m/s 0.0 mm
20:00 11.4° 1018.9 hPa 1.5 m/s 1.2 mm
 07:25     18:31    Daglengte: 11:06 Woensdag 06 Okt
02:00 10.8° 1018.9 hPa 1.8 m/s 1.2 mm
08:00 10.4° 1018.2 hPa 2.2 m/s 1.3 mm
14:00 13.2° 1018.0 hPa 2.9 m/s 0.9 mm
20:00 11.4° 1017.8 hPa 2.6 m/s 0.4 mm
 07:27     18:28    Daglengte: 11:01 Donderdag 07 Okt
02:00 10.4° 1017.7 hPa 2.1 m/s 0.4 mm
FMI Hirlam - 7.5 km EWN WRFDA - 12 km DWD ICON - 7 km GFS - 25 km Basiskaart






























































Updatetijd (Europe/Brussels) Resolutie Lengte Stap
FMI Hirlam 01:45, 07:45, 13:45, 19:45 7.5 km 49h 1h
EWN WRFDA 04:00, 10:00, 16:00, 22:00 12 km 73h 1h
DWD ICON 23:45, 05:45, 11:45, 17:45 7 km 75h 1h
GFS 02:00, 08:00, 14:00, 20:00 25 km 237h 3h
30+ mm
25-30 mm
20-25 mm
15-20 mm
10-15 mm
6-10 mm
4-6 mm
2-4 mm
1-2 mm
0.5-1 mm
0.2-0.5 mm
0.1-0.2 mm
30+ mm
25-30 mm
20-25 mm
15-20 mm
10-15 mm
6-10 mm
4-6 mm
2-4 mm
1-2 mm
0.5-1 mm
0.2-0.5 mm
0.1-0.2 mm
Sneeuwval
Natte sneeuw
Hagel
Vorst
30+ mm
25-30 mm
20-25 mm
15-20 mm
10-15 mm
6-10 mm
4-6 mm
2-4 mm
1-2 mm
0.5-1 mm
0.2-0.5 mm
0.1-0.2 mm
Sneeuwval
Natte sneeuw
Hagel
Vorst
Onweer
50 mm
40 mm
30 mm
26 mm
22 mm
18 mm
14 mm
10 mm
9 mm
8 mm
7 mm
6 mm
5 mm
4.5 mm
4 mm
3.5 mm
3 mm
2.5 mm
2 mm
1.5 mm
1 mm
0.8 mm
0.6 mm
0.4 mm
0.2 mm
0.05 mm
35°
30°
25°
20°
15°
10°
-5°
-10°
-15°
-20°
-25°
-30°
-35°
33> m/s
29 m/s
25 m/s
21 m/s
17 m/s
14 m/s
11 m/s
8 m/s
5 m/s
3 m/s
0 m/s
2600 J/kg
2400 J/kg
2200 J/kg
2000 J/kg
1800 J/kg
1600 J/kg
1400 J/kg
1200 J/kg
1000 J/kg
800 J/kg
600 J/kg
400 J/kg
200 J/kg
70 dBZ
65 dBZ
60 dBZ
55 dBZ
50 dBZ
45 dBZ
40 dBZ
35 dBZ
30 dBZ
25 dBZ
20 dBZ
15 dBZ
10 dBZ
5 dBZ
-1 K
-2 K
-3 K
-4 K
-5 K
-6 K
-7 K
-8 K
-9 K
950 m²/s²
900 m²/s²
850 m²/s²
800 m²/s²
750 m²/s²
700 m²/s²
650 m²/s²
600 m²/s²
550 m²/s²
500 m²/s²
450 m²/s²
400 m²/s²
350 m²/s²
300 m²/s²
250 m²/s²
200 m²/s²
150 m²/s²
100 m²/s²
46 m/s
44 m/s
42 m/s
40 m/s
38 m/s
36 m/s
34 m/s
32 m/s
30 m/s
28 m/s
26 m/s
24 m/s
22 m/s
20 m/s
16 m/s
12 m/s
8 m/s
4 m/s
30 m/s
28 m/s
26 m/s
24 m/s
22 m/s
20 m/s
18 m/s
16 m/s
14 m/s
12 m/s
10 m/s
8 m/s
6 m/s
4 m/s
2 m/s
3.0
2.8
2.6
2.4
2.2
2.0
1.8
1.6
1.4
1.2
1.0
0.8
0.6
0.4
0.2
15
14
13
12
11
10
9
8
7
6
5
4
3
2
1
90%
80%
70%
60%
50%
40%
30%
20%
10%
42
40
38
36
34
32
30
28
26
24
22
20
18
16
14
12
90+ cm
80-90 cm
70-80 cm
60-70 cm
50-60 cm
40-50 cm
30-40 cm
20-30 cm
10-20 cm
1-10 cm
Sneeuwval
Natte sneeuw
Regen
>120 mm
115 mm
110 mm
105 mm
100 mm
95 mm
90 mm
85 mm
80 mm
75 mm
70 mm
65 mm
60 mm
55 mm
50 mm
45 mm
45 mm
40 mm
35 mm
30 mm
25 mm
20 mm
15 mm
10 mm
5 mm
0.1 mm
960 hPa
880 hPa
800 hPa
720 hPa
640 hPa
560 hPa
584 gpdm
568 gpdm
552 gpdm
536 gpdm
520 gpdm
504 gpdm
488 gpdm
Extreem zwaar Noodweer Kans op onweer
15% 15% 5% 50% 15%

Dag




Kaart






35°
30°
25°
20°
15°
10°
-5°
-10°
-15°
<